STARLINK-1566, 46079

Orbit data source: Space-Track

STARLINK-1566, 46079 is a payload satellite owned by SpaceX/Seattle (US) in LEO that was launched on Fri, 07 Aug 2020 UTC via an FALCON 9 launch vehicle from the Air Force Eastern Test Range (AFETR). Payload-class satellites include a variety of spacecraft equipped with specific instruments for various scientific and technological missions. These include communications satellites like Starlink; space stations such as the ISS; scientific satellites like the Hubble; Earth observation satellites from companies like Planet Labs, Umbra, and HawkEye 360; GPS; miniature CubeSats for education and research; and military/defense satellites.

Loading next visibility...
Identifier
46079, 2020-055BE
Orbit
LEO
Country
Flag of USUS
Related business
Manufacturer
SpaceX/Seattle
Mission
Operational Commercial Communications
Bus & Motor
STARLINK, Unknown motor
Mass
260 kg wet, ~248 kg dry
Launch date (UTC)
2020-08-07 (6 years ago)
Launch vehicle
FALCON 9
Launch site
Air Force Eastern Test Range (AFETR)
Object type
Payload
Rocket body
Debris
Shape & HBR
Box + 1 Pan, 10.1 m
Radar Cross Section
13.562 m², Large (>1 m²)

Expand to show TLE details & history
Last TLE update: 5 hours ago

TLE from 5 hours ago
0 STARLINK-1566
1 46079U 20055BE  26263.59364710  .00000632  00000-0  32128-4 0  9993
2 46079  53.1597 274.0888 0001449  77.4006 282.7158 15.31704402339103
Epoch: 2026-09-20T14:14Z
TLE epoch observation values (Epoch: 2026-09-20T14:14:51.109Z)
Latitude
0.00003°
Longitude
60.89027°
Altitude
471.409 km
Speed
7.632 km/s
True Right ascension
18h 16m 21s
True Declination
0° 00' 00"
Sunlit
Object was in daylight at epoch
Visualization orbit readout
Latitude
Unknown
Longitude
Unknown
Altitude
Unknown
Speed
Unknown
Apparent Right ascension
Unknown
Apparent Declination
Unknown
Sunlit
N/A
Visualization observer readout
Local Sidereal Time
12:12:37
Azimuth
Unknown
Elevation
Unknown
Doppler factor
Unknown
Orbital elements
Apogee altitude
471.976 km
Perigee altitude
469.991 km
Semi-major axis
6,849.121 km
Eccentricity
0.00014
Inclination
53.1597°
RAAN
274.0888°
Arg. of periapsis
77.4006°
True anomaly
282.6996°
Mean anomaly
282.7158°
Eccentric anomaly
282.7077°
Mean motion
3.82905 °/min
Orbital period
94.02 mins
BSTAR
0.000032128
Loading maneuver chart data...
Computing Atmospheric mass density...

Documentation

Showing up to 5 results
|